STARLINK-1261 (45571 NORAD) Tracking and Keplerian Element Data

This shows tracking and keplerian element data for the satellite.

Feedback or suggestion? Click here.




ElementValue
Catalog45571
NameSTARLINK-1261
Epoch Orbit1225
Epoch Day187.50002315
Epoch Year2020
RAAN37.2436
Inclination52.9974
Eccentricity0.0001361
Argument of Perigee47.9932
Mean Anonmoly299.3323
Mean Motion15.62730919
Decay Rate0.00058572
L11 45571U 20025AS 20187.50002315 .00058572 00000-0 64143-3 0 9993
L22 45571 52.9974 37.2436 0001361 47.9932 299.3323 15.62730919 12254

Live tracking and technical data element details for STARLINK-1261 (NORAD 45571). STARLINK-1261 can be tracked NOW for your location showing map with azimuth and elevation plus other details from your city location.

Track the satellite on the map from your city or location and see movement details for azimuth, elevation, latitude, longitude, range, height, and movement on the map or in text.







IsCatalogInMostPopularTable: catalog: 45571, numindb: 22
Update: records affected: 1



GetName: 45571 STARLINK-1261

Hit Count: updated at: Mon, 06 Jul 2020 06:23:43 GMT